FENGYUN 1C DEB

Satellite information

Favourite Embed

Satellite Type and Status

DEBRISIN ORBIT

Key statistics

Satellite FENGYUN 1C DEB at a glance.

Uptime

9714

Days in orbit

Revolutions

≈ 14.5

Per day

Orbit

SSO

Sun Synchronous Orbit

Inclination

98.8

Latest

Satellite identification and parameters

Extended collection of information and parameters for FENGYUN 1C DEB.

Object identification

Identified? True

Debris? True

Object name: FENGYUN 1C DEB

International designator: 1999-025AJX

Object number (NORAD): 30533

Object ID (CCSDS): 30533

Country: PEOPLES REPUBLIC OF CHINA (PRC)

Current information (Y/N): Y

RCS size: SMALL

Orbital parameters

Period: 99.052 minutes

Inclination: 98.8335 deg

SMA: 7091.446 km

Apoapsis: 771.772 km

Periapsis: 654.85 km

RAAN: 115.1152 deg

Eccentricy: 0.0082439

Argument of periapsis: 150.5465 deg

Mean anomaly: 264.2061 deg

Mean motion: 14.53786211 rev/day

Mean motion (dot): 0.0002333 rev/day2

B* drag term: 0.0053100127 1/REarth

Two-line elements (TLE)

Creation date: Dec. 12, 2025, 10:14 a.m.

Reference frame: TEME

Reference center: EARTH

Epoch: Dec. 12, 2025, 7:46 a.m. UTC

TLE line 0: 0 FENGYUN 1C DEB

TLE line 1: 1 30533U 99025AJX 25346.32381984 .00023330 00000-0 53100-2 0 9999

TLE line 2: 2 30533 98.8335 115.1152 0082439 150.5465 264.2061 14.53786211978159

Live tracking on map

Real-time ground track for satellite FENGYUN 1C DEB.

In-orbit conjunctions

A list of the most updated potential collisions computed for object FENGYUN 1C DEB.

Target Orbit TCA Probability of collision Miss distance Type
CBERS 2 SSO 2025-12-11 23:04:20 0.0001506923 385.0 (m) PAYLOAD
COSMOS 2251 DEB LEO 2025-04-06 03:07:31 0.0001233876 169.0 (m) DEBRIS
CZ-6A DEB LEO 2025-02-09 05:34:02 0.0003384625 678.0 (m) DEBRIS

Associated space launch

Chinese polar orbiting meteorological satellite

FENGYUN 1C DEB was lifted into orbit during the mission ‘Long March 4B | Feng Yun 1C’, on board a Long March 4B space rocket.

The launch took place on May 10, 1999, 1:33 a.m. from Launch Complex 7.

For more information about the launch, click the button.

Launch to space Long March 4B | Feng Yun 1C
Long March 4B | Feng Yun 1C

Agency: N/A

Status: Launch Successful

Launch date: May 10, 1999, 1:33 a.m. UTC

Rocket: Long March 4B

Launch pad: Launch Complex 7

Location: Taiyuan Satellite Launch Center, People's Republic of China

...

Latest news about this satellite

There are no fresh news available about this satellite. Check back as we update our databases every day.


Newsletter sign-up

Weekly statistics, charts and insights to help you stay on top of the space industry.